Weather History for Elefsis, Greece

Change the Weather History Date:

Monday, October 10, 2011

  Actual Average Record
Temperature  
Mean Temperature 58 °F -  
Max Temperature 64 °F 69 °F 86 °F (1998)
Min Temperature 51 °F 54 °F 51 °F (2011)
Degree Days  
Heating Degree Days 8    
Growing Degree Days 8 (Base 50)    
Moisture  
Dew Point 49 °F    
Average Humidity 75    
Maximum Humidity 88    
Minimum Humidity 59    
Precipitation  
Precipitation 0.00 in - - ()
Sea Level Pressure  
Sea Level Pressure 29.61 in    
Wind  
Wind Speed 10 mph ()    
Max Wind Speed 26 mph    
Max Gust Speed 40 mph    
Visibility 5.8 miles    
Events Rain , Thunderstorm    
Averages and records for this station are not official NWS values.
T = Trace of Precipitation, MM = Missing Value Source: Averaged Metar Reports

Daily Weather History Graph

Daily Weather History Graph

Search for Another Location

Airport:

Trip Planner

Search our weather history database for the weather conditions in past years. The results will help you decide how hot, cold, wet, or windy it might be!

Date:

Astronomy

Oct. 10, 2011 Rise Set
Actual Time 7:29 AM EEST 6:56 PM EEST
Civil Twilight 7:02 AM EEST 7:22 PM EEST
Nautical Twilight 6:32 AM EEST 7:52 PM EEST
Astronomical Twilight 6:01 AM EEST 8:23 PM EEST
Moon 5:51 PM EEST (10/10) 5:53 AM EEST (10/10)
Length of Visible Light 12h 19m
Length of Day
11h 26m
Waxing Gibbous, 97% of the Moon is Illuminated
Oct 10
Waxing Gibbous
Oct 12
Full
Oct 20
Last Quarter
Oct 26
New
Nov 2
First Quarter

Hourly Weather History & Observations

Time (EEST) Temp. Dew Point Humidity Pressure Visibility Wind Dir Wind Speed Gust Speed Precip Events Conditions
12:20 AM 62.6 °F 55.4 °F 77% 29.62 in 6.2 mi Calm Calm - N/A   Mostly Cloudy
12:50 AM 62.6 °F 57.2 °F 82% 29.59 in 6.2 mi Calm Calm - N/A   Mostly Cloudy
1:20 AM 64.4 °F 57.2 °F 77% 29.59 in 5.0 mi Calm Calm - N/A Rain , Thunderstorm Light Thunderstorms and Rain
1:50 AM 62.6 °F 57.2 °F 82% 29.59 in 6.2 mi Calm Calm - N/A Rain Light Rain
2:20 AM 62.6 °F 57.2 °F 82% 29.59 in 6.2 mi Calm Calm - N/A Rain Light Rain
2:50 AM 60.8 °F 57.2 °F 88% 29.59 in 6.2 mi NNW 6.9 mph - N/A Rain Light Rain
3:20 AM 57.2 °F 53.6 °F 88% 29.59 in 6.2 mi North 13.8 mph - N/A Rain Light Rain
3:50 AM 57.2 °F 53.6 °F 88% 29.56 in 6.2 mi North 13.8 mph - N/A Rain Light Rain
4:20 AM 57.2 °F 53.6 °F 88% 29.56 in 6.2 mi NNE 13.8 mph - N/A   Mostly Cloudy
4:50 AM 59.0 °F 51.8 °F 77% 29.56 in 6.2 mi NNE 9.2 mph - N/A   Mostly Cloudy
5:20 AM 59.0 °F 51.8 °F 77% 29.56 in 6.2 mi Calm Calm - N/A   Mostly Cloudy
5:50 AM 59.0 °F 51.8 °F 77% 29.56 in 6.2 mi North 13.8 mph - N/A Rain Light Rain
6:20 AM 59.0 °F 51.8 °F 77% 29.56 in 6.2 mi North 13.8 mph - N/A   Mostly Cloudy
6:50 AM 59.0 °F 50.0 °F 72% 29.56 in 6.2 mi NNW 11.5 mph - N/A   Scattered Clouds
7:20 AM 59.0 °F 50.0 °F 72% 29.56 in 6.2 mi NNW 13.8 mph - N/A   Scattered Clouds
7:50 AM 59.0 °F 50.0 °F 72% 29.56 in 6.2 mi NNW 9.2 mph - N/A   Mostly Cloudy
8:20 AM 57.2 °F 50.0 °F 77% 29.56 in 6.2 mi NNW 16.1 mph - N/A Rain Light Rain
8:50 AM 55.4 °F 50.0 °F 82% 29.56 in 1.9 mi NW 16.1 mph - N/A Rain , Thunderstorm Thunderstorms and Rain
9:20 AM 53.6 °F 48.2 °F 82% 29.56 in 4.3 mi NNW 17.3 mph - N/A Rain Light Rain
9:50 AM 55.4 °F 50.0 °F 82% 29.56 in 6.2 mi NNW 19.6 mph - N/A   Scattered Clouds
10:20 AM 55.4 °F 50.0 °F 82% 29.56 in 6.2 mi NNW 19.6 mph 31.1 mph N/A   Mostly Cloudy
10:50 AM 55.4 °F 48.2 °F 77% 29.59 in 6.2 mi NNW 16.1 mph 27.6 mph N/A   Mostly Cloudy
11:20 AM 53.6 °F 46.4 °F 77% 29.59 in 5.0 mi NNW 18.4 mph 29.9 mph N/A Rain Light Rain
11:50 AM 53.6 °F 46.4 °F 77% 29.62 in 4.3 mi NNW 19.6 mph 34.5 mph N/A Rain Light Rain
12:20 PM 53.6 °F 48.2 °F 82% 29.62 in 4.3 mi NNW 15.0 mph 26.5 mph N/A Rain Light Rain
12:50 PM 53.6 °F 48.2 °F 82% 29.62 in 5.0 mi NNW 21.9 mph 33.4 mph N/A Rain Light Rain
1:20 PM 53.6 °F 48.2 °F 82% 29.62 in 6.2 mi NW 21.9 mph 36.8 mph N/A   Mostly Cloudy
2:20 PM 53.6 °F 46.4 °F 77% 29.62 in 4.3 mi NW 20.7 mph 35.7 mph N/A Rain , Thunderstorm Thunderstorms and Rain
2:50 PM 51.8 °F 46.4 °F 82% 29.62 in 3.7 mi NW 20.7 mph 32.2 mph N/A Rain , Thunderstorm Thunderstorms and Rain
3:20 PM 53.6 °F 48.2 °F 82% 29.62 in 6.2 mi NW 12.7 mph 24.2 mph N/A   Mostly Cloudy
3:50 PM 55.4 °F 48.2 °F 77% 29.62 in 6.2 mi NNW 16.1 mph 27.6 mph N/A   Mostly Cloudy
4:20 PM 55.4 °F 46.4 °F 72% 29.62 in 6.2 mi NW 18.4 mph 29.9 mph N/A   Mostly Cloudy
4:50 PM 55.4 °F 46.4 °F 72% 29.62 in 6.2 mi NW 18.4 mph 29.9 mph N/A   Scattered Clouds
5:20 PM 55.4 °F 46.4 °F 72% 29.62 in 6.2 mi NW 19.6 mph 32.2 mph N/A   Scattered Clouds
5:50 PM 55.4 °F 46.4 °F 72% 29.62 in 6.2 mi NW 23.0 mph 38.0 mph N/A   Mostly Cloudy
6:20 PM 55.4 °F 44.6 °F 67% 29.62 in 6.2 mi NNW 23.0 mph 35.7 mph N/A   Mostly Cloudy
6:50 PM 55.4 °F 44.6 °F 67% 29.62 in 6.2 mi NW 20.7 mph 34.5 mph N/A   Mostly Cloudy
7:50 PM 55.4 °F 46.4 °F 72% 29.62 in 6.2 mi NNW 20.7 mph 36.8 mph N/A   Mostly Cloudy
8:20 PM 55.4 °F 44.6 °F 67% 29.62 in 6.2 mi NW 26.5 mph 40.3 mph N/A   Mostly Cloudy
8:50 PM 57.2 °F 44.6 °F 63% 29.65 in 6.2 mi NW 24.2 mph 39.1 mph N/A   Mostly Cloudy
9:20 PM 57.2 °F 44.6 °F 63% 29.65 in 6.2 mi NW 18.4 mph 34.5 mph N/A   Mostly Cloudy
9:50 PM 57.2 °F 42.8 °F 59% 29.71 in 6.2 mi NW 16.1 mph 31.1 mph N/A   Mostly Cloudy
10:20 PM 57.2 °F 42.8 °F 59% 29.71 in 6.2 mi NNW 18.4 mph 34.5 mph N/A   Mostly Cloudy
10:50 PM 57.2 °F 42.8 °F 59% 29.71 in 6.2 mi NW 12.7 mph 24.2 mph N/A   Mostly Cloudy
11:20 PM 57.2 °F 42.8 °F 59% 29.71 in 6.2 mi NW 11.5 mph 23.0 mph N/A   Mostly Cloudy
11:50 PM 57.2 °F 42.8 °F 59% 29.71 in 6.2 mi NW 15.0 mph 27.6 mph N/A   Mostly Cloudy